• Em Portugal
  • Lista de países
  • Para 7 dias
  • Temperatura da água
  • Mapas de satélite
  • Mapa do tempo
  • Widgets de tempo
  • user-avatar
    Iniciar Sessão

    Previsão horária em Windhuk

    Hoje, 23 Outubro, Segunda-feira

    Tempo Temperatura Precipitação Vento Pressão Humidade
    00:00 +23°C° 0 mm 1 m/s 624 mmHg 27%
    01:00 +23°C° 0 mm 1 m/s 624 mmHg 28%
    02:00 +22°C° 0 mm 1 m/s 624 mmHg 31%
    03:00 +21°C° 0 mm 1 m/s 623 mmHg 33%
    04:00 +20°C° 0 mm 1 m/s 622 mmHg 36%
    05:00 +21°C° 0 mm 1 m/s 623 mmHg 33%
    06:00 +23°C° 0 mm 1 m/s 624 mmHg 31%
    07:00 +24°C° 0 mm 2 m/s 625 mmHg 28%
    08:00 +26°C° 0 mm 3 m/s 626 mmHg 25%
    09:00 +28°C° 0 mm 4 m/s 626 mmHg 22%
    10:00 +30°C° 0 mm 5 m/s 626 mmHg 19%
    11:00 +32°C° 0 mm 5 m/s 626 mmHg 18%
    12:00 +33°C° 0 mm 5 m/s 626 mmHg 16%
    13:00 +34°C° 0 mm 6 m/s 626 mmHg 14%
    14:00 +33°C° 0 mm 6 m/s 625 mmHg 14%
    15:00 +33°C° 0 mm 6 m/s 625 mmHg 14%
    16:00 +33°C° 0 mm 6 m/s 625 mmHg 13%
    17:00 +30°C° 0 mm 5 m/s 624 mmHg 13%
    18:00 +29°C° 0 mm 5 m/s 624 mmHg 14%
    19:00 +27°C° 0 mm 4 m/s 624 mmHg 14%
    20:00 +26°C° 0 mm 3 m/s 624 mmHg 14%
    21:00 +25°C° 0 mm 2 m/s 624 mmHg 14%
    22:00 +23°C° 0 mm 1 m/s 624 mmHg 14%
    23:00 +23°C° 0 mm 1 m/s 624 mmHg 15%

    Amanhã, 24 Outubro, Terça-feira

    Tempo Temperatura Precipitação Vento Pressão Humidade
    00:00 +22°C° 0 mm 1 m/s 623 mmHg 15%
    01:00 +22°C° 0 mm 1 m/s 623 mmHg 16%
    02:00 +21°C° 0 mm 1 m/s 622 mmHg 19%
    03:00 +21°C° 0 mm 1 m/s 622 mmHg 22%
    04:00 +20°C° 0 mm 1 m/s 622 mmHg 25%
    05:00 +22°C° 0 mm 1 m/s 623 mmHg 25%
    06:00 +24°C° 0 mm 1 m/s 624 mmHg 25%
    07:00 +25°C° 0 mm 1 m/s 624 mmHg 25%
    08:00 +27°C° 0 mm 3 m/s 625 mmHg 24%
    09:00 +29°C° 0 mm 4 m/s 625 mmHg 22%
    10:00 +32°C° 0 mm 5 m/s 626 mmHg 21%
    11:00 +33°C° 0 mm 5 m/s 626 mmHg 20%
    12:00 +33°C° 0 mm 5 m/s 625 mmHg 19%
    13:00 +34°C° 0 mm 5 m/s 625 mmHg 18%
    14:00 +34°C° 0 mm 5 m/s 624 mmHg 18%
    15:00 +33°C° 0 mm 5 m/s 624 mmHg 18%
    16:00 +33°C° 0 mm 5 m/s 624 mmHg 18%
    17:00 +32°C° 0,1 mm 5 m/s 624 mmHg 19%
    18:00 +29°C° 0,1 mm 4 m/s 624 mmHg 20%
    19:00 +28°C° 0,1 mm 4 m/s 624 mmHg 21%
    20:00 +27°C° 0,1 mm 3 m/s 624 mmHg 21%
    21:00 +25°C° 0,1 mm 2 m/s 624 mmHg 22%
    22:00 +24°C° 0,1 mm 1 m/s 624 mmHg 22%
    23:00 +23°C° 0 mm 1 m/s 624 mmHg 23%

    Depois de amanhã, 25 Outubro, Quarta-feira

    Tempo Temperatura Precipitação Vento Pressão Humidade
    00:00 +22°C° 0 mm 1 m/s 623 mmHg 24%
    01:00 +22°C° 0 mm 1 m/s 623 mmHg 25%
    02:00 +21°C° 0 mm 1 m/s 623 mmHg 26%
    03:00 +21°C° 0 mm 1 m/s 622 mmHg 27%
    04:00 +20°C° 0 mm 1 m/s 622 mmHg 28%
    05:00 +22°C° 0 mm 1 m/s 623 mmHg 26%
    06:00 +23°C° 0 mm 2 m/s 624 mmHg 25%
    07:00 +25°C° 0 mm 2 m/s 625 mmHg 23%
    08:00 +26°C° 0 mm 2 m/s 625 mmHg 21%
    09:00 +28°C° 0 mm 2 m/s 625 mmHg 19%
    10:00 +30°C° 0 mm 3 m/s 626 mmHg 17%
    11:00 +31°C° 0 mm 3 m/s 625 mmHg 16%
    12:00 +33°C° 0 mm 3 m/s 625 mmHg 16%
    13:00 +34°C° 0 mm 4 m/s 625 mmHg 15%
    14:00 +34°C° 0 mm 5 m/s 624 mmHg 15%
    15:00 +34°C° 0 mm 5 m/s 624 mmHg 14%
    16:00 +33°C° 0 mm 6 m/s 624 mmHg 14%
    17:00 +32°C° 0 mm 6 m/s 624 mmHg 14%
    18:00 +29°C° 0 mm 6 m/s 624 mmHg 14%
    19:00 +27°C° 0 mm 6 m/s 624 mmHg 14%
    20:00 +26°C° 0 mm 5 m/s 624 mmHg 15%
    21:00 +25°C° 0 mm 4 m/s 624 mmHg 16%
    22:00 +23°C° 0 mm 2 m/s 624 mmHg 17%
    23:00 +23°C° 0 mm 2 m/s 623 mmHg 18%

    26 Outubro, Quinta-feira

    Tempo Temperatura Precipitação Vento Pressão Humidade
    00:00 +22°C° 0 mm 1 m/s 623 mmHg 19%
    01:00 +21°C° 0 mm 1 m/s 622 mmHg 20%
    02:00 +20°C° 0 mm 1 m/s 622 mmHg 21%
    03:00 +18°C° 0 mm 0 m/s 621 mmHg 22%
    04:00 +17°C° 0 mm 0 m/s 621 mmHg 23%
    05:00 +18°C° 0 mm 0 m/s 622 mmHg 20%
    06:00 +20°C° 0 mm 0 m/s 623 mmHg 17%
    07:00 +22°C° 0 mm 0 m/s 624 mmHg 14%
    08:00 +26°C° 0 mm 1 m/s 624 mmHg 13%
    09:00 +28°C° 0 mm 2 m/s 624 mmHg 11%
    10:00 +30°C° 0 mm 3 m/s 625 mmHg 9%
    11:00 +32°C° 0 mm 5 m/s 624 mmHg 9%
    12:00 +33°C° 0 mm 6 m/s 624 mmHg 9%
    13:00 +34°C° 0 mm 8 m/s 624 mmHg 9%
    14:00 +33°C° 0 mm 8 m/s 623 mmHg 9%
    15:00 +33°C° 0 mm 9 m/s 623 mmHg 9%
    16:00 +32°C° 0 mm 9 m/s 622 mmHg 9%
    17:00 +29°C° 0 mm 8 m/s 622 mmHg 9%
    18:00 +27°C° 0 mm 7 m/s 622 mmHg 10%
    19:00 +24°C° 0 mm 6 m/s 622 mmHg 10%
    20:00 +23°C° 0 mm 5 m/s 622 mmHg 13%
    21:00 +22°C° 0 mm 4 m/s 622 mmHg 15%
    22:00 +20°C° 0 mm 3 m/s 622 mmHg 18%
    23:00 +19°C° 0 mm 3 m/s 621 mmHg 21%

    27 Outubro, Sexta-feira

    Tempo Temperatura Precipitação Vento Pressão Humidade
    00:00 +18°C° 0 mm 2 m/s 621 mmHg 24%
    01:00 +17°C° 0 mm 2 m/s 620 mmHg 27%
    02:00 +17°C° 0 mm 2 m/s 620 mmHg 28%
    03:00 +16°C° 0 mm 2 m/s 620 mmHg 30%
    04:00 +15°C° 0 mm 2 m/s 620 mmHg 32%
    05:00 +16°C° 0 mm 2 m/s 620 mmHg 33%
    06:00 +17°C° 0 mm 3 m/s 621 mmHg 34%
    07:00 +18°C° 0 mm 3 m/s 622 mmHg 35%
    08:00 +20°C° 0 mm 3 m/s 622 mmHg 29%
    09:00 +23°C° 0 mm 2 m/s 623 mmHg 23%
    10:00 +25°C° 0 mm 2 m/s 623 mmHg 18%
    11:00 +27°C° 0 mm 2 m/s 623 mmHg 15%
    12:00 +28°C° 0 mm 3 m/s 623 mmHg 11%
    13:00 +30°C° 0 mm 3 m/s 623 mmHg 8%
    14:00 +30°C° 0 mm 3 m/s 622 mmHg 8%
    15:00 +30°C° 0 mm 4 m/s 622 mmHg 7%
    16:00 +32°C° 0 mm 4 m/s 622 mmHg 7%
    17:00 +29°C° 0 mm 5 m/s 622 mmHg 9%
    18:00 +27°C° 0 mm 5 m/s 622 mmHg 12%
    19:00 +25°C° 0 mm 5 m/s 622 mmHg 15%
    20:00 +23°C° 0 mm 6 m/s 622 mmHg 17%
    21:00 +22°C° 0 mm 6 m/s 622 mmHg 19%
    22:00 +20°C° 0 mm 7 m/s 622 mmHg 22%
    23:00 +18°C° 0 mm 7 m/s 622 mmHg 21%

    28 Outubro, Sábado

    Tempo Temperatura Precipitação Vento Pressão Humidade
    00:00 +17°C° 0 mm 6 m/s 621 mmHg 20%
    01:00 +16°C° 0 mm 6 m/s 621 mmHg 19%
    02:00 +15°C° 0 mm 6 m/s 621 mmHg 19%
    03:00 +14°C° 0 mm 6 m/s 620 mmHg 19%
    04:00 +13°C° 0 mm 6 m/s 620 mmHg 18%
    05:00 +13°C° 0 mm 6 m/s 621 mmHg 19%
    06:00 +13°C° 0 mm 6 m/s 621 mmHg 19%
    07:00 +14°C° 0 mm 6 m/s 622 mmHg 19%
    08:00 +16°C° 0 mm 6 m/s 622 mmHg 17%
    09:00 +20°C° 0 mm 6 m/s 623 mmHg 14%
    10:00 +22°C° 0 mm 6 m/s 623 mmHg 12%
    11:00 +24°C° 0 mm 6 m/s 623 mmHg 11%
    12:00 +26°C° 0 mm 5 m/s 623 mmHg 10%
    13:00 +28°C° 0 mm 5 m/s 623 mmHg 9%
    14:00 +28°C° 0 mm 4 m/s 623 mmHg 8%
    15:00 +29°C° 0 mm 4 m/s 622 mmHg 8%
    16:00 +29°C° 0 mm 3 m/s 622 mmHg 7%
    17:00 +28°C° 0 mm 4 m/s 622 mmHg 8%
    18:00 +26°C° 0 mm 4 m/s 622 mmHg 9%
    19:00 +25°C° 0 mm 5 m/s 622 mmHg 10%
    20:00 +23°C° 0 mm 5 m/s 622 mmHg 11%
    21:00 +22°C° 0 mm 5 m/s 622 mmHg 12%
    22:00 +21°C° 0 mm 6 m/s 621 mmHg 13%
    23:00 +20°C° 0 mm 5 m/s 621 mmHg 13%
    Mostrar mais